Tracking 18945 objects as of 20-Jan-2018
HD Live streaming from Space Station
objects crossing your sky now

FENGYUN 1C DEB

Track FENGYUN 1C DEB now!
10-day predictions


NORAD ID: 30924
Int'l Code: 1999-025AZN
Perigee: 786.1 km
Apogee: 861.8 km
Inclination: 99.0 °
Period: 101.2 minutes
Semi major axis: 7194 km
RCS: 0.029 m2 (small)
Launch date: May 10, 1999
Source: People's Republic of China (PRC)
Launch site: Taiyaun Space Center, China (TSC)

Note: This is SATELLITE DEBRIS
aabbcc
Your satellite tracking list
Your tracking list is empty




NASA's NSSDC Master Catalog

Two Line Element Set (TLE):
1 30924U 99025AZN 18019.84514285 +.00001188 +00000-0 +54515-3 0  9990
2 30924 098.9997 059.6936 0052628 033.2664 018.6580 14.22523595558987
Source of the keplerian elements: AFSPC